EW9341 Weather Reports


time (UTC)temp
C
wind
direction
speed
KPH
gust
KPH
rain 1hr
cm
rain 24hr
cm
rain mn
cm
humidity
%
barometer
mb
20260507085002 13 64 6.4 14.5 0.00 0.00 0.00 68 1015.7
20260507084729 13 311 6.4 14.5 0.00 0.00 0.00 70 1015.6
20260507084000 13 331 6.4 16.1 0.00 0.00 0.00 71 1015.6
20260507083452 13 5 6.4 16.1 0.00 0.00 0.00 71 1015.7
20260507082950 13 296 6.4 14.5 0.00 0.00 0.00 71 1015.8
20260507082448 13 318 6.4 14.5 0.00 0.00 0.00 72 1015.7
20260507081947 12 315 6.4 14.5 0.00 0.00 0.00 73 1015.7
20260507081449 12 324 4.8 11.3 0.00 0.00 0.00 73 1015.7
20260507080947 12 15 4.8 12.9 0.00 0.00 0.00 73 1015.7
20260507080718 12 318 4.8 12.9 0.00 0.00 0.00 73 1015.6
20260507075947 12 115 4.8 9.7 0.00 0.00 0.00 72 1015.6
20260507075447 12 311 4.8 9.7 0.00 0.00 0.00 72 1015.5
20260507074945 12 61 6.4 9.7 0.00 0.00 0.00 72 1015.6
20260507074716 12 342 6.4 12.9 0.00 0.00 0.00 73 1015.6
20260507074217 12 35 4.8 12.9 0.00 0.00 0.00 71 1015.4
20260507073447 13 317 4.8 12.9 0.00 0.00 0.00 71 1015.4
20260507073217 12 13 4.8 12.9 0.00 0.00 0.00 72 1015.4
20260507072448 12 345 4.8 12.9 0.00 0.00 0.00 73 1015.4
20260507071945 12 313 4.8 12.9 0.00 0.00 0.00 74 1015.4
20260507071445 12 17 4.8 9.7 0.00 0.00 0.00 75 1015.4
20260507070945 12 0 4.8 8.0 0.00 0.00 0.00 77 1015.4
20260507070717 11 21 4.8 9.7 0.00 0.00 0.00 78 1015.4
20260507070217 11 325 4.8 9.7 0.00 0.00 0.00 80 1015.4
20260507065447 11 321 4.8 11.3 0.00 0.00 0.00 80 1015.4
20260507064945 10 348 3.2 11.3 0.00 0.00 0.00 82 1015.4
20260507064447 10 355 3.2 9.7 0.00 0.00 0.00 83 1015.3
20260507063945 9 16 4.8 9.7 0.00 0.00 0.00 85 1015.2
20260507063716 9 342 6.4 9.7 0.00 0.00 0.00 86 1015.2
20260507062945 8 355 4.8 9.7 0.00 0.00 0.00 86 1015.3
20260507062446 8 26 4.8 8.0 0.00 0.00 0.00 87 1015.3
20260507061944 8 310 3.2 8.0 0.00 0.00 0.00 88 1015.2
20260507061716 8 317 3.2 8.0 0.00 0.00 0.00 88 1015.2
20260507060945 8 34 3.2 8.0 0.00 0.00 0.00 88 1015.1
20260507060445 8 304 4.8 11.3 0.00 0.00 0.00 88 1015.2
20260507055945 7 329 3.2 11.3 0.00 0.00 0.00 89 1015.1
20260507055447 7 344 4.8 8.0 0.00 0.00 0.00 89 1015.0
20260507055215 7 333 3.2 8.0 0.00 0.00 0.00 89 1015.0
20260507054445 7 313 1.6 6.4 0.00 0.00 0.00 89 1015.0
20260507053943 7 292 3.2 6.4 0.00 0.00 0.00 89 1014.9
20260507053443 7 340 3.2 6.4 0.00 0.00 0.00 89 1015.0
20260507052942 7 350 3.2 6.4 0.00 0.00 0.00 89 1014.9
20260507052442 7 346 3.2 6.4 0.00 0.00 0.00 90 1014.9
20260507051946 6 300 4.8 8.0 0.00 0.00 0.00 90 1014.8
20260507051439 6 308 4.8 8.0 0.00 0.00 0.00 90 1014.9
20260507050941 6 348 4.8 8.0 0.00 0.00 0.00 90 1014.7
20260507050439 6 345 3.2 8.0 0.00 0.00 0.00 90 1014.6
20260507045940 6 339 3.2 4.8 0.00 0.00 0.00 90 1014.6
20260507045437 6 344 1.6 6.4 0.00 0.00 0.00 90 1014.6
20260507044937 6 0 0.0 6.4 0.00 0.00 0.00 90 1014.4
20260507044708 6 339 0.0 0.0 0.00 0.00 0.00 90 1014.5
20260507044209 6 355 1.6 4.8 0.00 0.00 0.00 90 1014.4
20260507043437 6 355 1.6 4.8 0.00 0.00 0.00 89 1014.4
20260507042936 6 319 3.2 4.8 0.00 0.00 0.00 89 1014.4
20260507042437 6 316 1.6 4.8 0.00 0.00 0.00 89 1014.3
20260507041437 6 309 1.6 3.2 0.00 0.00 0.00 89 1014.3
20260507040937 6 309 1.6 4.8 0.00 0.00 0.00 89 1014.3
20260507040437 6 323 3.2 4.8 0.00 0.00 0.00 89 1014.2
20260507035936 6 315 3.2 4.8 0.00 0.00 0.00 88 1014.2
20260507035437 6 317 3.2 4.8 0.00 0.00 0.00 88 1014.2
20260507034938 6 318 3.2 4.8 0.00 0.00 0.00 88 1014.1
20260507034438 6 335 3.2 4.8 0.00 0.00 0.00 88 1014.1
20260507033934 6 321 3.2 6.4 0.00 0.00 0.00 88 1014.2
20260507033435 6 330 3.2 6.4 0.00 0.00 0.00 87 1014.1
20260507032934 6 322 3.2 4.8 0.00 0.00 0.00 87 1014.1
20260507032433 7 316 3.2 4.8 0.00 0.00 0.00 87 1014.1
20260507031932 7 330 3.2 4.8 0.00 0.00 0.00 86 1014.1
20260507031434 7 334 1.6 4.8 0.00 0.00 0.00 86 1014.0
20260507030935 7 320 0.0 4.8 0.00 0.00 0.00 86 1014.0
20260507030434 7 306 0.0 0.0 0.00 0.00 0.00 85 1014.0
20260507025932 7 337 1.6 4.8 0.00 0.00 0.00 85 1014.0
20260507025702 7 333 3.2 6.4 0.00 0.00 0.00 84 1013.9
20260507024929 7 321 3.2 6.4 0.00 0.00 0.00 84 1013.9
20260507024701 7 325 3.2 4.8 0.00 0.00 0.00 84 1014.0
20260507023930 7 312 1.6 4.8 0.00 0.00 0.00 83 1013.9
20260507023430 7 325 1.6 4.8 0.00 0.00 0.00 83 1013.9
20260507022926 7 5 1.6 6.4 0.00 0.00 0.00 83 1013.9
20260507022428 8 355 3.2 6.4 0.00 0.00 0.00 83 1013.9
20260507022211 8 306 4.8 8.0 0.00 0.00 0.00 83 1013.8
20260507021422 8 338 4.8 8.0 0.00 0.00 0.00 83 1013.7
20260507021151 8 5 3.2 9.7 0.00 0.00 0.00 84 1013.7
20260507020420 8 304 3.2 9.7 0.00 0.00 0.00 85 1013.6
20260507015918 8 343 3.2 6.4 0.00 0.00 0.00 85 1013.8
20260507015416 8 320 3.2 6.4 0.00 0.00 0.00 86 1013.6
20260507015145 8 344 3.2 6.4 0.00 0.00 0.00 86 1013.6
20260507014417 8 9 3.2 6.4 0.00 0.00 0.00 86 1013.6
20260507013912 8 355 3.2 8.0 0.00 0.00 0.00 86 1013.5
20260507013412 8 341 3.2 8.0 0.00 0.00 0.00 86 1013.5
20260507012911 8 5 3.2 6.4 0.00 0.00 0.00 85 1013.6
20260507012422 8 326 3.2 6.4 0.00 0.00 0.00 85 1013.5
20260507011909 8 346 3.2 6.4 0.00 0.00 0.00 85 1013.5
20260507011416 8 355 4.8 6.4 0.00 0.00 0.00 85 1013.5
20260507010903 8 344 3.2 6.4 0.00 0.00 0.00 84 1013.4
20260507010402 8 0 4.8 6.4 0.00 0.00 0.00 85 1013.2
20260507005900 8 330 4.8 6.4 0.00 0.00 0.00 84 1013.3
20260507005402 9 333 3.2 6.4 0.00 0.00 0.00 84 1013.3
20260507005132 9 10 4.8 8.0 0.00 0.00 0.00 84 1013.2
20260507004400 9 355 4.8 8.0 0.00 0.00 0.00 84 1013.2
20260507003858 9 330 3.2 8.0 0.00 0.00 0.00 84 1013.2
20260507003358 9 319 3.2 6.4 0.00 0.00 0.00 83 1013.1
20260507002901 9 5 4.8 6.4 0.00 0.00 0.00 83 1013.1
20260507002358 9 348 4.8 6.4 0.00 0.00 0.00 82 1013.1
20260507001859 9 5 3.2 6.4 0.00 0.00 0.00 82 1013.0
20260507001358 9 5 3.2 6.4 0.00 0.00 0.00 82 1013.1
20260507000858 9 338 3.2 6.4 0.00 0.00 0.00 82 1013.0
20260507000405 10 355 3.2 6.4 0.00 0.00 0.00 82 1013.1
20260506235852 10 16 3.2 8.0 0.00 0.00 0.00 81 1013.0
20260506235352 10 328 4.8 8.0 0.00 0.00 0.00 81 1013.0
20260506234851 10 355 4.8 8.0 0.00 0.00 0.00 81 1013.0
20260506234352 10 331 4.8 8.0 0.00 0.00 0.00 81 1013.0
20260506234122 10 348 4.8 8.0 0.00 0.00 0.00 81 1012.9
20260506233350 10 10 4.8 9.7 0.00 0.00 0.00 81 1012.8
20260506232852 10 15 3.2 9.7 0.00 0.00 0.00 80 1012.8
20260506232348 10 339 3.2 8.0 0.00 0.00 0.00 79 1012.8
20260506231848 10 351 3.2 8.0 0.00 0.00 0.00 79 1012.7
20260506231346 10 347 3.2 6.4 0.00 0.00 0.00 78 1012.8
20260506230846 10 0 3.2 8.0 0.00 0.00 0.00 78 1012.8
20260506230346 10 343 4.8 8.0 0.00 0.00 0.00 77 1012.7
20260506225845 10 5 4.8 8.0 0.00 0.00 0.00 77 1012.7
20260506225341 10 355 4.8 9.7 0.00 0.00 0.00 77 1012.6
20260506224834 10 9 4.8 9.7 0.00 0.00 0.00 77 1012.5
20260506224334 10 317 4.8 8.0 0.00 0.00 0.00 77 1012.5
20260506223835 10 346 4.8 8.0 0.00 0.00 0.00 77 1012.6
20260506223334 10 337 4.8 8.0 0.00 0.00 0.00 77 1012.5
20260506222847 10 14 4.8 8.0 0.00 0.00 0.00 77 1012.6
20260506222334 11 319 4.8 8.0 0.00 0.00 0.00 76 1012.6
20260506221835 11 308 6.4 12.9 0.00 0.00 0.00 76 1012.6
20260506221334 11 36 6.4 12.9 0.00 0.00 0.00 76 1012.6
20260506220833 11 26 6.4 12.9 0.00 0.00 0.00 78 1012.5
20260506220332 11 355 6.4 12.9 0.00 0.00 0.00 78 1012.5
20260506220104 11 336 4.8 9.7 0.00 0.00 0.00 79 1012.5
20260506215332 11 340 4.8 8.0 0.00 0.00 0.00 79 1012.3
20260506214828 11 346 4.8 8.0 0.00 0.00 0.00 79 1012.4
20260506214329 11 349 4.8 11.3 0.00 0.00 0.00 79 1012.4
20260506214057 11 15 4.8 11.3 0.00 0.00 0.00 79 1012.4
20260506213326 11 324 4.8 8.0 0.00 0.00 0.00 79 1012.3
20260506212826 11 342 4.8 9.7 0.00 0.00 0.00 79 1012.3
20260506212329 11 325 4.8 9.7 0.00 0.00 0.00 79 1012.2
20260506211826 11 313 3.2 8.0 0.00 0.00 0.00 78 1012.2
20260506211325 11 319 4.8 8.0 0.00 0.00 0.00 78 1012.1
20260506210826 11 326 4.8 8.0 0.00 0.00 0.00 78 1012.1
20260506210329 11 355 4.8 8.0 0.00 0.00 0.00 77 1012.1
20260506205823 11 331 4.8 11.3 0.00 0.00 0.00 77 1012.1
20260506205323 11 336 4.8 11.3 0.00 0.00 0.00 76 1012.1
20260506204823 11 322 4.8 9.7 0.00 0.00 0.00 75 1012.1
20260506204323 11 331 4.8 9.7 0.00 0.00 0.00 75 1012.0
20260506203312 11 19 6.4 12.9 0.00 0.00 0.00 73 1012.0
20260506202811 11 10 6.4 12.9 0.00 0.00 0.00 72 1012.0
20260506202309 11 346 4.8 9.7 0.00 0.00 0.00 72 1011.9
20260506201542 11 10 3.2 8.0 0.00 0.00 0.00 72 1011.8
20260506200810 11 296 3.2 4.8 0.00 0.00 0.00 72 1011.8
20260506200310 12 309 3.2 4.8 0.00 0.00 0.00 71 1011.8
20260506195810 12 309 1.6 6.4 0.00 0.00 0.00 70 1011.8
20260506195311 12 311 0.0 6.4 0.00 0.00 0.00 69 1011.7
20260506194809 12 313 0.0 0.0 0.00 0.00 0.00 69 1011.6
20260506194311 12 355 0.0 0.0 0.00 0.00 0.00 67 1011.6
20260506193306 12 333 3.2 8.0 0.00 0.00 0.00 67 1011.7
20260506192807 12 26 3.2 8.0 0.00 0.00 0.00 68 1011.7
20260506191808 12 34 1.6 4.8 0.00 0.00 0.00 67 1011.5
20260506191531 12 35 1.6 4.8 0.00 0.00 0.00 67 1011.5
20260506190801 12 355 1.6 6.4 0.00 0.00 0.00 67 1011.3
20260506190301 12 19 1.6 6.4 0.00 0.00 0.00 67 1011.3
20260506185801 12 37 0.0 4.8 0.00 0.00 0.00 67 1011.1
20260506185531 12 5 1.6 4.8 0.00 0.00 0.00 67 1011.2
20260506184801 12 0 1.6 4.8 0.00 0.00 0.00 66 1011.1
20260506184302 12 65 3.2 4.8 0.00 0.00 0.00 66 1011.0
20260506183801 12 44 3.2 6.4 0.00 0.00 0.00 66 1010.9
20260506183301 12 74 3.2 6.4 0.00 0.00 0.00 65 1010.9
20260506182255 12 55 1.6 4.8 0.00 0.00 0.00 65 1010.8
20260506181754 12 58 1.6 4.8 0.00 0.00 0.00 65 1010.7
20260506181254 12 101 1.6 4.8 0.00 0.00 0.00 64 1010.7
20260506180750 12 64 1.6 4.8 0.00 0.00 0.00 64 1010.6
20260506180251 12 76 1.6 4.8 0.00 0.00 0.00 64 1010.6
20260506175750 12 81 1.6 4.8 0.00 0.00 0.00 63 1010.6
20260506175251 12 69 3.2 8.0 0.00 0.00 0.00 64 1010.4
20260506174747 12 55 3.2 8.0 0.00 0.00 0.00 63 1010.4
20260506174247 12 49 3.2 11.3 0.00 0.00 0.00 63 1010.4
20260506173749 12 58 4.8 11.3 0.00 0.00 0.00 63 1010.3
20260506173247 12 90 3.2 11.3 0.00 0.00 0.00 63 1010.2
20260506172747 12 61 3.2 11.3 0.00 0.00 0.00 62 1010.2
20260506172248 12 103 3.2 11.3 0.00 0.00 0.00 62 1010.1
20260506171740 12 76 4.8 11.3 0.00 0.00 0.00 62 1010.0
20260506171239 12 61 4.8 12.9 0.00 0.00 0.00 62 1010.1
20260506170740 12 71 4.8 12.9 0.00 0.00 0.00 62 1010.0
20260506170238 12 95 4.8 12.9 0.00 0.00 0.00 62 1010.0
20260506165737 12 93 4.8 12.9 0.00 0.00 0.00 62 1010.0
20260506165238 12 99 6.4 14.5 0.00 0.00 0.00 62 1010.0
20260506164736 12 81 6.4 14.5 0.00 0.00 0.00 62 1010.0
20260506164239 12 93 6.4 16.1 0.00 0.00 0.00 62 1010.0
20260506163737 12 136 8.0 16.1 0.00 0.00 0.00 62 1010.1
20260506163508 13 17 9.7 17.7 0.00 0.00 0.00 61 1010.1
20260506162738 13 67 8.0 17.7 0.00 0.00 0.00 61 1010.1
20260506162237 13 99 8.0 19.3 0.00 0.00 0.00 61 1010.1
20260506161737 13 70 8.0 19.3 0.00 0.00 0.00 61 1010.0
20260506161237 13 80 9.7 19.3 0.00 0.00 0.00 60 1010.1
20260506160737 13 96 8.0 19.3 0.00 0.00 0.00 60 1010.1
20260506160237 13 96 6.4 19.3 0.00 0.00 0.00 60 1010.1
20260506155734 13 73 8.0 16.1 0.00 0.00 0.00 60 1010.1
20260506155233 13 50 8.0 16.1 0.00 0.00 0.00 59 1010.1
20260506154732 13 38 6.4 17.7 0.00 0.00 0.00 60 1010.0
20260506154233 13 66 6.4 17.7 0.00 0.00 0.00 60 1010.0
20260506153733 13 84 6.4 19.3 0.00 0.00 0.00 61 1010.1
20260506153232 12 36 8.0 19.3 0.00 0.00 0.00 60 1010.0
20260506152734 12 97 9.7 17.7 0.00 0.00 0.00 60 1010.0
20260506152233 12 59 11.3 19.3 0.00 0.00 0.00 59 1010.0
20260506151733 12 339 9.7 19.3 0.00 0.00 0.00 60 1009.9
20260506151232 12 28 9.7 19.3 0.00 0.00 0.00 61 1010.0
20260506150735 12 104 8.0 19.3 0.00 0.00 0.00 61 1009.9
20260506150229 12 20 8.0 19.3 0.00 0.00 0.00 61 1009.9
20260506145727 13 72 9.7 19.3 0.00 0.00 0.00 60 1009.9
20260506145457 13 84 9.7 19.3 0.00 0.00 0.00 61 1009.9
20260506144500 13 98 9.7 22.5 0.00 0.00 0.00 61 1009.9
20260506143728 13 64 11.3 22.5 0.00 0.00 0.00 60 1009.9
20260506143227 13 65 11.3 25.7 0.00 0.00 0.00 59 1009.8
20260506142724 13 35 12.9 25.7 0.00 0.00 0.00 59 1009.8
20260506142225 13 73 14.5 25.7 0.00 0.00 0.00 58 1009.8
20260506141724 13 55 12.9 27.4 0.00 0.00 0.00 57 1009.7
20260506141456 13 338 11.3 27.4 0.00 0.00 0.00 58 1009.8
20260506140724 13 13 12.9 24.1 0.00 0.00 0.00 57 1009.7
20260506140222 13 53 12.9 24.1 0.00 0.00 0.00 56 1009.8
20260506135722 13 86 11.3 25.7 0.00 0.00 0.00 56 1009.7
20260506135222 13 69 11.3 25.7 0.00 0.00 0.00 56 1009.7
20260506134720 13 80 11.3 25.7 0.00 0.00 0.00 54 1009.6
20260506134222 13 81 11.3 25.7 0.00 0.00 0.00 54 1009.6
20260506133721 14 51 11.3 25.7 0.00 0.00 0.00 54 1009.5
20260506133221 14 64 9.7 25.7 0.00 0.00 0.00 54 1009.4
20260506132722 14 19 9.7 24.1 0.00 0.00 0.00 55 1009.5
20260506132222 14 27 11.3 24.1 0.00 0.00 0.00 53 1009.5
20260506131721 14 10 8.0 20.9 0.00 0.00 0.00 55 1009.4
20260506131220 14 355 6.4 17.7 0.00 0.00 0.00 57 1009.4
20260506130721 14 13 6.4 19.3 0.00 0.00 0.00 59 1009.4
20260506130452 13 311 8.0 19.3 0.00 0.00 0.00 60 1009.3
20260506125714 13 332 9.7 19.3 0.00 0.00 0.00 60 1009.2
20260506125207 13 74 9.7 19.3 0.00 0.00 0.00 60 1009.4
20260506124707 13 315 9.7 19.3 0.00 0.00 0.00 65 1009.3
20260506124208 13 317 9.7 19.3 0.00 0.00 0.00 66 1009.1
20260506123707 13 320 8.0 16.1 0.00 0.00 0.00 67 1009.2
20260506123207 13 307 8.0 16.1 0.00 0.00 0.00 68 1009.2
20260506122708 12 344 8.0 16.1 0.00 0.00 0.00 68 1009.1
20260506122207 13 15 8.0 16.1 0.00 0.00 0.00 68 1009.1
20260506121708 13 323 9.7 17.7 0.00 0.00 0.00 69 1009.2
20260506121202 13 5 9.7 17.7 0.00 0.00 0.00 69 1009.1
20260506120935 13 336 9.7 20.9 0.00 0.00 0.00 70 1009.1
20260506120204 13 350 9.7 20.9 0.00 0.00 0.00 70 1009.1
20260506115702 13 339 9.7 19.3 0.00 0.00 0.00 71 1009.0
20260506115156 13 355 11.3 19.3 0.00 0.00 0.00 71 1009.0
20260506114415 13 313 12.9 22.5 0.00 0.00 0.00 70 1009.1
20260506113644 13 306 12.9 22.5 0.00 0.00 0.00 70 1009.1
20260506113417 13 332 12.9 22.5 0.00 0.00 0.00 71 1009.1
20260506112647 13 5 11.3 20.9 0.00 0.00 0.00 71 1009.1
20260506112144 13 336 9.7 19.3 0.00 0.00 0.00 69 1009.1
20260506111645 13 347 9.7 19.3 0.00 0.00 0.00 69 1009.1
20260506111159 13 328 11.3 20.9 0.00 0.00 0.00 70 1009.0
20260506110644 14 329 12.9 20.9 0.00 0.00 0.00 67 1009.0
20260506110144 14 5 12.9 25.7 0.00 0.00 0.00 66 1008.9
20260506105644 14 344 14.5 25.7 0.00 0.00 0.00 66 1009.0
20260506105147 15 350 12.9 24.1 0.00 0.00 0.00 62 1008.9
20260506104643 15 331 11.3 22.5 0.00 0.00 0.00 60 1008.9
20260506104145 15 34 11.3 19.3 0.00 0.00 0.00 59 1008.8
20260506103640 15 333 11.3 25.7 0.00 0.00 0.00 54 1008.8
20260506103140 15 323 12.9 29.0 0.00 0.00 0.00 54 1008.8
20260506102911 15 5 12.9 29.0 0.00 0.00 0.00 55 1008.8
20260506102140 15 22 12.9 24.1 0.00 0.00 0.00 57 1008.7
20260506101640 15 90 14.5 22.5 0.00 0.00 0.00 57 1008.8
20260506101142 15 63 12.9 22.5 0.00 0.00 0.00 57 1008.8
20260506100640 15 21 11.3 22.5 0.00 0.00 0.00 60 1008.8
20260506100154 15 311 11.3 24.1 0.00 0.00 0.00 61 1008.7
20260506095910 15 351 11.3 24.1 0.00 0.00 0.00 60 1008.6
20260506095411 15 5 12.9 25.7 0.00 0.00 0.00 60 1008.7
20260506094640 15 5 11.3 25.7 0.00 0.00 0.00 61 1008.6
20260506094139 15 38 11.3 27.4 0.00 0.00 0.00 61 1008.7
20260506093636 15 38 11.3 27.4 0.00 0.00 0.00 62 1008.6
20260506093136 14 67 11.3 29.0 0.00 0.00 0.00 64 1008.6
20260506092635 14 74 11.3 29.0 0.00 0.00 0.00 63 1008.6
20260506092134 14 28 9.7 22.5 0.00 0.00 0.00 66 1008.6
20260506091636 14 355 11.3 20.9 0.00 0.00 0.00 65 1008.5
20260506091134 14 318 12.9 29.0 0.00 0.00 0.00 65 1008.5
20260506090634 14 21 12.9 29.0 0.00 0.00 0.00 64 1008.4
20260506090147 13 22 12.9 24.1 0.00 0.00 0.00 66 1008.4
20260506085905 13 24 12.9 25.7 0.00 0.00 0.00 66 1008.4